TimeEDT,TemperatureF,Dew PointF,Humidity,Sea Level PressureIn,VisibilityMPH,Wind Direction,Wind SpeedMPH,Gust SpeedMPH,PrecipitationIn,Events,Conditions,WindDirDegrees,DateUTC
12:58 AM,48.2,46.4,93,30.22,10.0,SSE,3.5,-,N/A,,Overcast,150,2012-09-20 04:58:00
1:18 AM,48.2,46.4,93,30.22,10.0,SSE,3.5,-,N/A,,Overcast,150,2012-09-20 05:18:00
1:38 AM,48.2,46.4,93,30.22,10.0,SSE,4.6,-,N/A,,Overcast,150,2012-09-20 05:38:00
1:58 AM,48.2,46.4,93,30.22,10.0,SSE,4.6,-,N/A,,Overcast,160,2012-09-20 05:58:00
2:18 AM,48.2,48.2,100,30.22,10.0,SSE,6.9,-,N/A,,Overcast,160,2012-09-20 06:18:00
2:39 AM,48.2,48.2,100,30.22,10.0,South,6.9,-,N/A,,Overcast,170,2012-09-20 06:39:00
2:58 AM,48.2,48.2,100,30.21,7.0,South,6.9,-,N/A,,Overcast,180,2012-09-20 06:58:00
3:18 AM,48.2,48.2,100,30.22,7.0,South,8.1,-,N/A,,Overcast,180,2012-09-20 07:18:00
3:38 AM,48.2,48.2,100,30.22,7.0,South,6.9,-,N/A,,Overcast,170,2012-09-20 07:38:00
3:58 AM,48.2,48.2,100,30.21,5.0,South,6.9,-,N/A,,Overcast,180,2012-09-20 07:58:00
4:18 AM,48.2,48.2,100,30.21,5.0,South,8.1,-,N/A,,Overcast,170,2012-09-20 08:18:00
4:38 AM,48.2,48.2,100,30.21,7.0,South,9.2,-,N/A,,Overcast,170,2012-09-20 08:38:00
4:58 AM,48.2,48.2,100,30.22,10.0,South,8.1,-,N/A,,Overcast,180,2012-09-20 08:58:00
5:18 AM,48.2,48.2,100,30.22,10.0,South,5.8,-,N/A,,Overcast,180,2012-09-20 09:18:00
5:38 AM,48.2,48.2,100,30.22,10.0,South,9.2,-,N/A,,Overcast,190,2012-09-20 09:38:00
6:18 AM,48.2,48.2,100,30.22,10.0,SSW,4.6,-,N/A,,Overcast,200,2012-09-20 10:18:00
6:58 AM,48.2,48.2,100,30.22,7.0,South,6.9,-,N/A,,Overcast,180,2012-09-20 10:58:00
7:18 AM,48.2,48.2,100,30.22,3.0,South,6.9,-,N/A,,Overcast,180,2012-09-20 11:18:00
7:38 AM,48.2,48.2,100,30.23,1.0,South,5.8,-,N/A,,Overcast,190,2012-09-20 11:38:00
7:57 AM,48.2,48.2,100,30.23,0.8,South,8.1,-,N/A,,Overcast,190,2012-09-20 11:57:00
8:37 AM,50.0,50.0,100,30.24,4.0,SSW,5.8,-,N/A,,Overcast,200,2012-09-20 12:37:00
9:37 AM,51.8,51.8,100,30.24,0.2,South,5.8,-,N/A,Fog,Fog,190,2012-09-20 13:37:00
9:58 AM,51.8,51.8,100,30.24,7.0,SW,5.8,-,N/A,,Overcast,230,2012-09-20 13:58:00
10:17 AM,53.6,51.8,94,30.24,7.0,SW,6.9,-,N/A,,Overcast,230,2012-09-20 14:17:00
10:37 AM,55.4,53.6,94,30.24,10.0,West,5.8,-,N/A,,Overcast,260,2012-09-20 14:37:00
10:57 AM,53.6,53.6,100,30.23,10.0,WSW,10.4,-,N/A,,Overcast,250,2012-09-20 14:57:00
11:17 AM,55.4,53.6,94,30.23,10.0,West,6.9,-,N/A,,Overcast,260,2012-09-20 15:17:00
11:57 AM,57.2,53.6,88,30.22,10.0,West,8.1,-,N/A,,Overcast,270,2012-09-20 15:57:00
12:19 PM,57.2,53.6,88,30.22,10.0,WSW,6.9,-,N/A,,Overcast,250,2012-09-20 16:19:00
12:59 PM,57.2,51.8,82,30.21,10.0,West,4.6,-,N/A,,Mostly Cloudy,270,2012-09-20 16:59:00
1:18 PM,59.0,51.8,77,30.21,10.0,West,4.6,-,N/A,,Mostly Cloudy,280,2012-09-20 17:18:00
1:39 PM,59.0,55.4,88,30.20,10.0,SSE,6.9,-,N/A,,Overcast,150,2012-09-20 17:39:00
1:58 PM,59.0,55.4,88,30.20,10.0,SSE,8.1,-,N/A,,Mostly Cloudy,160,2012-09-20 17:58:00
2:19 PM,57.2,55.4,94,30.19,10.0,SE,8.1,-,N/A,,Mostly Cloudy,140,2012-09-20 18:19:00
2:39 PM,59.0,55.4,88,30.19,10.0,SSE,5.8,-,N/A,,Overcast,150,2012-09-20 18:39:00
2:59 PM,60.8,55.4,82,30.19,10.0,South,6.9,-,N/A,,Mostly Cloudy,180,2012-09-20 18:59:00
3:19 PM,60.8,55.4,82,30.18,10.0,SE,5.8,-,N/A,,Scattered Clouds,140,2012-09-20 19:19:00
3:39 PM,62.6,55.4,77,30.18,10.0,SSE,6.9,-,N/A,,Clear,160,2012-09-20 19:39:00
3:57 PM,62.6,55.4,77,30.18,10.0,SSE,5.8,-,N/A,,Clear,160,2012-09-20 19:57:00
4:17 PM,60.8,55.4,82,30.18,10.0,SSE,9.2,-,N/A,,Clear,160,2012-09-20 20:17:00
4:37 PM,60.8,55.4,82,30.18,10.0,SSE,5.8,-,N/A,,Mostly Cloudy,150,2012-09-20 20:37:00
4:57 PM,60.8,55.4,82,30.17,10.0,South,6.9,-,N/A,,Unknown,170,2012-09-20 20:57:00
5:17 PM,60.8,55.4,82,30.17,10.0,SSE,8.1,-,N/A,,Scattered Clouds,160,2012-09-20 21:17:00
5:37 PM,60.8,55.4,82,30.17,10.0,South,8.1,-,N/A,,Scattered Clouds,170,2012-09-20 21:37:00
5:58 PM,60.8,55.4,82,30.17,10.0,South,6.9,-,N/A,,Clear,170,2012-09-20 21:58:00
6:17 PM,59.0,55.4,88,30.18,10.0,South,8.1,-,N/A,,Scattered Clouds,170,2012-09-20 22:17:00
6:38 PM,59.0,55.4,88,30.18,10.0,South,6.9,-,N/A,,Scattered Clouds,180,2012-09-20 22:38:00
6:57 PM,57.2,55.4,94,30.18,10.0,South,8.1,-,N/A,,Clear,170,2012-09-20 22:57:00
7:17 PM,57.2,55.4,94,30.18,10.0,South,6.9,-,N/A,,Clear,170,2012-09-20 23:17:00
7:38 PM,55.4,55.4,100,30.19,10.0,South,6.9,-,N/A,,Clear,180,2012-09-20 23:38:00
7:57 PM,55.4,55.4,100,30.19,10.0,South,6.9,-,N/A,,Clear,180,2012-09-20 23:57:00
8:17 PM,55.4,55.4,100,30.19,10.0,South,6.9,-,N/A,,Clear,170,2012-09-21 00:17:00
8:58 PM,55.4,55.4,100,30.20,10.0,South,11.5,17.3,N/A,,Clear,180,2012-09-21 00:58:00
9:17 PM,55.4,55.4,100,30.20,10.0,South,10.4,-,N/A,,Clear,180,2012-09-21 01:17:00
9:38 PM,55.4,53.6,94,30.20,10.0,South,9.2,-,N/A,,Clear,180,2012-09-21 01:38:00
9:57 PM,55.4,53.6,94,30.20,10.0,South,10.4,-,N/A,,Clear,180,2012-09-21 01:57:00
10:17 PM,55.4,53.6,94,30.20,10.0,South,10.4,16.1,N/A,,Clear,190,2012-09-21 02:17:00
10:37 PM,55.4,53.6,94,30.19,10.0,South,9.2,16.1,N/A,,Clear,190,2012-09-21 02:37:00
10:58 PM,55.4,53.6,94,30.19,10.0,South,9.2,-,N/A,,Clear,190,2012-09-21 02:58:00
11:18 PM,55.4,53.6,94,30.19,10.0,SSW,8.1,-,N/A,,Clear,200,2012-09-21 03:18:00
11:37 PM,55.4,53.6,94,30.20,10.0,South,8.1,-,N/A,,Clear,180,2012-09-21 03:37:00
11:58 PM,55.4,53.6,94,30.20,10.0,South,6.9,-,N/A,,Clear,190,2012-09-21 03:58:00